Temp
12 12 13 13 13 13 14 14 14 15 15 15 15 15 15 15 15 15 15 15 15 15 15 15 15 14 14 14 14 14 12 14 16 17 17 17 16 16 16 17 15 14 15 15 14
12 12 13 13 13 13 14 14 14 15 15 15 15 16 16 16 16 15 15 15 15 15 15 15 15 15 16 15 14 14 15 16 17 17 17 17 17 16 16 16 16 16 15 15 15
12 12 13 13 13 14 14 14 15 15 15 16 16 16 16 16 16 16 15 15 15 15 15 15 15 16 15 15 15 16 17 17 17 17 17 17 17 16 16 16 16 17 16 16 15
12 12 13 13 14 14 15 15 15 16 16 16 16 16 16 16 16 16 16 16 15 15 15 16 15 15 15 15 16 16 17 17 17 17 17 17 17 17 16 17 16 17 17 16 15
12 12 13 13 14 14 15 15 15 16 16 16 17 17 17 16 16 16 16 16 16 15 15 15 15 15 15 15 16 16 17 17 17 17 17 17 17 17 17 17 16 17 17 16 16
12 12 13 13 14 14 15 15 16 16 16 16 17 17 17 16 16 17 17 16 16 16 16 15 15 15 15 15 16 16 17 17 17 17 17 17 17 17 16 16 17 17 17 16 16
12 12 13 13 13 14 15 15 16 16 16 17 16 17 17 16 16 16 16 16 16 16 15 15 16 16 16 16 16 16 17 17 18 17 18 17 17 17 17 17 17 16 16 16 15
12 12 13 13 13 14 14 15 15 16 16 17 17 16 16 17 16 17 16 16 16 16 16 16 17 16 16 16 17 18 17 18 18 18 18 18 17 17 17 17 16 16 16 16 15
12 12 13 13 13 14 14 15 15 16 16 16 16 16 16 17 16 16 16 16 15 15 16 16 16 16 16 17 17 18 18 18 18 18 18 18 17 17 17 17 16 16 15 15 15
12 12 13 13 13 14 14 14 15 15 16 16 16 16 16 16 16 16 16 17 16 16 16 16 16 17 17 16 17 17 18 18 18 19 19 18 17 17 17 17 16 15 15 15 15
12 12 12 13 13 14 14 14 14 15 15 15 15 15 15 15 16 16 16 17 16 16 15 15 16 17 17 17 17 18 18 18 18 18 18 18 17 17 17 17 17 16 15 15 14
12 12 12 13 13 13 14 14 14 15 15 16 15 16 16 15 16 16 16 16 16 16 15 16 17 17 17 17 18 18 18 18 18 18 18 18 17 17 17 17 17 16 15 15 13
12 12 12 13 13 13 13 13 14 15 15 15 16 15 16 15 15 16 16 15 16 16 16 16 17 17 17 18 18 17 17 17 18 18 18 18 17 16 16 16 16 15 15 15 14
12 12 12 12 13 13 14 14 14 14 15 16 16 15 15 15 16 16 15 16 16 16 16 17 17 17 17 17 17 17 17 17 18 18 18 18 17 16 16 16 15 15 15 15 14
12 12 12 12 12 13 13 13 13 14 12 16 16 15 16 16 15 16 15 15 16 16 16 16 17 17 17 17 17 17 17 17 17 17 17 18 17 15 15 15 15 15 14 14 14
12 12 12 12 12 13 13 13 13 14 14 16 16 16 16 16 16 16 15 15 16 15 16 17 17 17 17 17 17 17 17 17 17 17 16 18 17 16 15 16 15 15 14 14 14
11 12 12 12 12 13 13 12 13 13 16 16 17 16 16 16 15 15 16 15 15 16 16 17 17 17 17 17 17 17 17 16 14 12 13 17 17 17 16 16 16 15 14 14 13
11 12 13 12 13 12 12 12 14 15 15 16 16 16 16 16 16 15 16 16 16 16 16 16 17 17 17 17 17 16 16 16 14 11 14 17 15 16 17 15 15 14 13 13 12
11 12 13 12 12 12 12 12 14 15 15 15 16 16 16 16 16 15 16 17 17 17 16 17 16 17 17 17 17 17 16 16 16 15 15 15 14 15 15 14 14 13 13 12 12
11 12 12 12 12 12 12 13 14 15 15 15 15 16 17 17 16 16 16 17 17 17 17 17 17 16 16 16 16 16 16 16 16 12 13 15 15 14 14 14 13 13 13 12 12
10 11 11 11 11 11 12 13 14 15 15 15 15 15 16 16 16 17 17 17 17 17 17 16 17 16 16 16 16 16 16 15 15 15 11 9 14 15 15 15 14 14 13 13 12
9 10 10 10 11 11 12 14 14 15 14 14 14 15 15 15 16 17 17 17 17 17 16 17 16 16 16 15 15 16 16 15 15 14 14 14 15 14 15 14 14 13 13 13 13
9 9 8 8 9 10 12 13 12 13 14 14 14 14 15 15 15 15 16 16 17 16 16 16 15 15 15 16 15 15 14 15 15 14 14 13 14 14 14 14 13 13 13 12 12
8 9 8 8 8 8 10 11 11 13 13 12 14 14 14 14 15 15 15 15 15 15 16 15 15 15 15 15 15 14 13 13 14 14 14 14 14 13 14 13 13 13 13 13 12
7 8 8 8 8 8 9 9 11 12 13 13 13 14 14 14 14 14 14 14 14 14 15 14 14 14 13 14 14 13 13 13 13 13 13 13 13 14 13 13 12 12 12 12 11
6 7 7 7 7 8 8 9 11 12 12 13 13 13 13 13 13 14 14 13 14 14 14 13 13 12 13 12 12 12 12 12 12 13 13 12 13 13 13 13 11 11 10 10 9
5 6 6 7 7 8 9 9 11 11 11 12 12 13 13 13 13 12 13 13 13 13 13 12 12 12 11 11 11 11 11 12 12 12 12 12 12 12 11 11 10 10 10 10 10
Height
3172 3171 3170 3169 3169 3169 3168 3168 3168 3168 3168 3169 3171 3173 3174 3177 3179 3181 3183 3185 3186 3187 3187 3188 3189 3191 3192 3193 3194 3193 3191 3188 3190 3189 3189 3188 3188 3189 3190 3187 3186 3185 3186 3185 3184
3172 3171 3170 3170 3169 3169 3168 3168 3167 3167 3167 3168 3169 3170 3172 3174 3177 3179 3181 3182 3183 3185 3187 3188 3190 3190 3190 3190 3193 3192 3191 3190 3191 3190 3190 3191 3189 3189 3190 3189 3189 3186 3185 3187 3187
3172 3171 3170 3170 3169 3169 3168 3168 3168 3167 3167 3167 3168 3169 3171 3173 3176 3176 3178 3181 3182 3184 3186 3188 3190 3188 3188 3190 3192 3191 3190 3191 3190 3189 3189 3189 3190 3188 3189 3190 3190 3188 3187 3188 3189
3172 3171 3170 3170 3169 3169 3168 3168 3167 3167 3167 3167 3168 3169 3170 3173 3177 3175 3176 3178 3181 3183 3185 3187 3188 3188 3186 3186 3189 3189 3189 3189 3189 3188 3187 3187 3188 3187 3187 3188 3190 3190 3189 3191 3193
3172 3171 3170 3169 3169 3168 3168 3168 3167 3167 3167 3167 3168 3169 3171 3173 3174 3174 3175 3177 3179 3182 3183 3186 3187 3185 3184 3185 3186 3187 3187 3186 3187 3187 3187 3186 3187 3189 3188 3189 3191 3191 3191 3192 3194
3172 3170 3170 3169 3168 3168 3168 3167 3167 3167 3167 3167 3168 3170 3172 3174 3174 3174 3175 3176 3178 3180 3183 3185 3186 3184 3184 3185 3185 3185 3186 3184 3186 3185 3187 3186 3186 3187 3188 3188 3189 3190 3191 3191 3192
3171 3170 3169 3168 3168 3167 3167 3167 3167 3167 3167 3167 3168 3169 3172 3174 3173 3173 3174 3176 3178 3180 3182 3183 3183 3184 3184 3186 3186 3186 3185 3184 3183 3183 3185 3185 3186 3184 3186 3186 3187 3189 3192 3192 3192
3170 3169 3168 3167 3167 3167 3166 3166 3166 3166 3167 3167 3168 3169 3171 3172 3172 3173 3175 3176 3177 3179 3181 3182 3181 3183 3185 3186 3186 3184 3184 3184 3183 3183 3185 3186 3188 3187 3181 3185 3186 3189 3191 3192 3194
3168 3168 3167 3167 3166 3166 3166 3165 3165 3166 3166 3167 3169 3169 3171 3171 3172 3173 3174 3176 3178 3180 3181 3180 3181 3183 3184 3184 3184 3181 3179 3179 3183 3183 3183 3185 3187 3189 3188 3183 3185 3187 3190 3192 3195
3166 3166 3166 3166 3165 3165 3165 3165 3165 3165 3166 3167 3168 3171 3171 3171 3172 3173 3174 3176 3177 3179 3180 3181 3182 3183 3183 3183 3183 3182 3182 3182 3183 3183 3182 3184 3186 3187 3189 3188 3186 3187 3189 3192 3195
3164 3164 3164 3164 3164 3164 3164 3165 3167 3167 3165 3166 3167 3167 3168 3170 3171 3173 3173 3174 3176 3178 3180 3181 3182 3182 3182 3183 3183 3183 3182 3184 3184 3184 3180 3183 3185 3186 3186 3186 3188 3188 3189 3191 3194
3162 3162 3162 3162 3162 3162 3163 3163 3163 3164 3164 3165 3166 3165 3167 3167 3171 3171 3173 3175 3177 3178 3179 3181 3180 3181 3182 3183 3183 3182 3181 3182 3182 3182 3182 3183 3185 3185 3185 3185 3186 3189 3189 3190 3192
3159 3159 3160 3159 3160 3160 3160 3161 3161 3161 3162 3163 3164 3165 3165 3168 3170 3170 3173 3174 3176 3177 3179 3180 3181 3182 3182 3182 3181 3182 3180 3181 3182 3181 3182 3183 3186 3185 3185 3184 3185 3187 3189 3190 3190
3155 3156 3157 3157 3160 3157 3158 3159 3158 3159 3160 3160 3160 3162 3163 3166 3168 3169 3172 3176 3174 3176 3177 3179 3179 3181 3181 3181 3180 3180 3180 3180 3179 3180 3180 3181 3184 3184 3182 3183 3184 3186 3188 3190 3191
3152 3152 3153 3154 3155 3156 3158 3157 3157 3158 3160 3158 3158 3161 3162 3165 3167 3169 3172 3174 3174 3175 3177 3179 3179 3179 3179 3180 3180 3180 3179 3179 3178 3178 3178 3177 3179 3180 3181 3181 3183 3184 3186 3189 3191
3147 3148 3149 3151 3152 3153 3154 3155 3157 3160 3154 3154 3156 3156 3160 3162 3165 3167 3169 3173 3173 3173 3174 3174 3176 3178 3179 3178 3179 3178 3178 3178 3176 3176 3176 3173 3176 3175 3175 3177 3180 3183 3185 3187 3191
3142 3143 3145 3147 3149 3150 3152 3154 3158 3154 3152 3152 3152 3154 3157 3160 3163 3165 3167 3169 3171 3173 3172 3173 3173 3175 3176 3177 3178 3178 3177 3177 3179 3178 3177 3174 3172 3172 3174 3175 3176 3179 3184 3187 3187
3136 3138 3140 3143 3144 3145 3148 3152 3152 3147 3150 3150 3150 3153 3154 3157 3160 3161 3165 3166 3168 3170 3171 3171 3170 3167 3169 3175 3177 3178 3178 3179 3183 3184 3176 3172 3171 3171 3170 3175 3179 3181 3182 3183 3184
3130 3132 3135 3138 3138 3141 3145 3145 3144 3145 3148 3148 3150 3151 3152 3155 3158 3160 3162 3162 3164 3166 3170 3170 3171 3170 3172 3174 3177 3177 3178 3179 3179 3179 3177 3176 3177 3175 3176 3178 3178 3180 3179 3181 3182
3124 3127 3131 3130 3133 3135 3138 3138 3138 3142 3144 3145 3147 3149 3148 3149 3153 3156 3158 3158 3159 3162 3164 3167 3170 3171 3172 3174 3176 3176 3177 3177 3177 3180 3180 3176 3177 3175 3177 3176 3178 3178 3180 3181 3181
3118 3122 3124 3125 3127 3128 3129 3133 3134 3139 3143 3143 3144 3146 3148 3148 3150 3150 3151 3153 3154 3156 3160 3163 3166 3169 3171 3171 3173 3174 3174 3175 3176 3177 3179 3182 3178 3175 3178 3177 3177 3178 3179 3179 3179
3113 3117 3118 3119 3122 3121 3124 3129 3132 3134 3139 3138 3139 3140 3142 3143 3145 3144 3145 3148 3149 3151 3154 3158 3161 3164 3167 3169 3169 3171 3171 3172 3173 3176 3176 3177 3179 3176 3176 3176 3178 3178 3178 3179 3180
3107 3112 3114 3114 3114 3117 3122 3124 3125 3128 3132 3134 3135 3136 3138 3140 3144 3144 3143 3145 3144 3146 3149 3154 3157 3160 3164 3168 3168 3168 3171 3172 3170 3171 3172 3174 3175 3174 3175 3175 3176 3176 3176 3176 3175
3104 3107 3110 3111 3113 3115 3117 3118 3119 3124 3125 3128 3131 3132 3133 3136 3140 3142 3143 3144 3145 3147 3148 3151 3153 3156 3160 3163 3165 3166 3167 3168 3167 3168 3169 3169 3171 3172 3172 3171 3172 3171 3171 3170 3169
3097 3098 3099 3104 3109 3109 3111 3114 3117 3120 3122 3124 3127 3129 3132 3134 3136 3139 3139 3141 3143 3144 3146 3149 3151 3154 3157 3160 3161 3162 3164 3165 3165 3167 3167 3168 3167 3167 3166 3166 3165 3165 3165 3164 3164
3090 3090 3095 3100 3103 3104 3109 3112 3113 3116 3117 3119 3121 3127 3128 3128 3130 3133 3135 3136 3138 3140 3141 3144 3148 3151 3154 3156 3156 3157 3159 3160 3162 3162 3162 3162 3160 3159 3161 3160 3159 3158 3159 3159 3159
3085 3086 3091 3096 3099 3102 3102 3105 3106 3108 3113 3113 3115 3119 3121 3123 3128 3129 3131 3131 3134 3137 3138 3141 3144 3147 3152 3153 3154 3157 3157 3158 3157 3157 3156 3154 3155 3154 3155 3156 3155 3155 3155 3155 3154
Wind_Speed
5 5 5 4 4 3 2 1 1 3 6 9 11 13 13 12 12 11 8 7 5 4 4 7 9 7 1 4 9 12 17 14 7 9 10 11 7 9 9 13 9 14 16 18 23
6 6 5 5 3 3 3 3 2 1 2 4 8 10 11 11 9 7 9 7 6 7 8 11 15 15 10 6 13 16 17 11 7 6 2 4 10 8 5 8 7 12 13 12 16
6 6 5 5 4 3 3 3 3 2 2 3 4 6 8 8 7 9 9 9 8 9 9 8 14 12 5 9 13 13 2 6 7 10 8 4 1 7 10 6 7 13 15 13 11
6 6 5 5 4 3 3 3 4 3 3 3 4 5 7 9 5 5 10 11 11 9 8 10 15 9 5 7 7 6 2 5 4 8 4 1 4 0 5 8 6 10 15 15 8
6 6 5 5 4 3 2 2 3 3 2 3 4 5 8 10 6 5 7 10 12 10 8 8 11 9 2 2 4 3 3 6 5 4 5 7 6 7 5 2 8 8 10 12 13
5 5 5 5 4 4 3 1 1 2 2 3 4 4 6 6 3 4 6 7 10 11 8 6 9 7 2 5 3 2 3 1 4 2 5 6 8 7 7 7 3 1 4 10 11
5 5 5 4 4 4 3 1 0 1 1 2 3 4 5 4 2 3 4 5 9 9 9 11 10 4 3 3 4 6 4 7 6 7 11 10 10 3 6 2 3 6 5 6 7
5 5 5 5 4 4 3 2 1 1 2 3 2 3 2 4 3 6 5 6 8 9 11 6 2 3 4 2 1 7 8 6 5 5 7 5 12 10 4 5 4 4 6 4 4
6 5 5 4 4 3 2 1 2 2 3 3 4 4 3 3 6 5 8 9 8 6 6 6 4 3 2 6 13 16 21 7 9 4 9 10 16 12 8 1 4 3 7 3 2
7 5 5 4 4 4 3 2 3 4 5 6 5 5 2 1 4 6 10 14 15 14 12 10 7 6 7 6 9 15 14 13 14 10 2 15 15 14 16 9 3 8 6 5 2
7 6 5 5 5 5 6 6 4 5 7 7 8 8 4 4 5 6 6 8 11 12 10 6 4 8 8 5 7 8 7 4 12 6 7 12 15 12 16 16 13 4 6 7 5
8 7 6 6 6 6 8 7 8 7 7 9 7 6 6 7 1 5 6 11 15 12 6 3 4 4 5 3 7 5 6 7 11 7 4 7 13 17 16 14 11 8 9 8 12
10 8 7 7 7 7 8 9 10 8 9 11 8 10 6 2 4 6 5 16 15 11 4 5 3 3 2 11 2 5 8 3 3 1 2 3 19 20 16 14 11 12 8 10 10
12 10 8 9 9 10 10 10 11 7 6 7 12 13 12 9 7 9 7 10 12 4 7 7 4 7 1 3 2 3 5 1 1 3 5 8 4 25 25 19 18 15 14 12 13
14 12 11 10 11 11 6 8 7 7 1 4 9 6 10 11 8 9 8 10 10 4 5 3 1 4 3 1 5 6 9 10 8 8 10 14 3 29 30 24 22 19 17 16 15
16 15 14 12 13 13 9 10 8 5 6 10 15 11 16 16 12 9 12 10 10 8 7 7 5 7 5 7 5 7 5 8 10 9 5 11 8 17 35 28 26 22 17 14 13
18 18 15 14 15 15 13 11 9 7 7 14 17 12 18 20 15 19 12 12 13 7 9 5 10 11 14 8 7 3 10 5 5 4 6 3 5 3 32 29 25 25 18 11 5
19 19 17 16 18 16 17 17 10 9 6 10 21 15 16 20 14 19 13 7 11 10 9 6 14 10 20 9 4 5 1 3 2 1 8 8 3 4 15 30 18 12 9 9 11
21 21 18 17 21 21 21 23 20 9 3 8 21 22 19 19 15 27 22 13 6 13 11 2 9 10 10 9 7 1 2 0 2 2 3 3 14 12 20 17 15 15 13 15 15
20 20 15 21 22 23 25 29 28 19 0 3 6 26 21 19 23 26 29 20 12 12 16 14 8 4 8 9 5 5 2 4 2 2 2 3 4 11 25 22 21 18 17 17 15
17 15 15 18 22 26 30 31 32 24 15 8 11 6 8 6 13 15 32 26 17 16 18 26 21 10 5 8 6 5 7 5 1 2 5 1 3 9 12 15 17 17 15 15 14
15 12 16 18 24 28 31 28 28 26 17 10 14 18 9 4 3 4 30 19 21 20 26 22 15 11 11 6 8 7 11 11 9 5 3 4 6 9 5 17 20 18 16 15 17
15 19 22 22 21 21 23 27 26 22 14 6 15 17 18 16 3 5 11 11 19 26 24 19 10 9 6 10 4 5 6 6 7 7 7 3 2 9 12 16 13 14 15 17 18
16 22 25 27 23 18 16 18 18 16 17 14 15 13 11 8 12 4 5 12 12 13 16 17 14 11 11 6 8 8 9 7 7 7 11 15 13 14 16 14 14 18 21 24 26
20 22 30 25 25 24 18 17 16 14 13 19 20 16 12 13 12 15 9 9 12 11 12 10 8 10 13 15 18 16 16 11 9 10 11 13 15 15 18 13 17 19 22 25 26
23 30 28 18 16 26 21 16 19 14 6 20 19 20 19 14 13 14 14 14 15 14 10 8 5 5 8 10 14 17 15 13 13 12 13 14 20 20 21 21 16 16 16 16 17
25 27 25 25 18 14 18 15 14 9 12 11 17 15 27 21 14 11 11 16 15 15 15 11 10 7 7 11 12 11 13 14 16 16 18 21 20 12 12 13 15 16 18 21 25
Wind_Direction
352 2 2 357 356 10 27 16 221 214 217 219 219 223 226 224 225 227 224 228 219 216 175 144 133 116 141 42 346 322 289 302 303 70 55 65 102 142 98 48 70 78 58 50 78
354 3 3 358 359 12 25 42 43 77 142 190 204 214 220 224 221 208 212 205 198 166 152 146 138 134 120 66 302 286 285 316 65 59 101 134 32 140 125 86 87 69 72 55 66
351 358 1 355 351 9 30 41 54 59 95 126 160 190 203 201 201 210 210 192 175 175 156 150 177 119 87 2 17 328 317 351 3 347 337 281 356 121 132 115 72 42 40 48 71
345 347 352 353 345 352 25 41 58 54 91 122 121 139 161 155 138 187 198 193 187 183 169 135 153 150 5 351 5 9 1 309 310 315 328 334 216 115 43 77 74 42 32 52 92
339 335 338 342 340 334 359 33 47 59 80 120 126 123 139 140 106 130 167 184 190 190 185 154 168 172 230 303 309 61 48 293 304 306 65 72 159 157 232 129 126 42 27 51 53
334 325 324 326 329 328 335 3 28 63 84 118 137 128 127 147 98 114 122 167 182 189 188 170 199 218 287 200 201 216 239 229 182 127 97 108 131 182 129 139 141 283 65 39 31
328 318 310 310 314 323 326 330 299 112 122 138 142 138 137 104 172 133 120 153 161 174 178 193 205 217 189 165 254 331 288 207 201 157 125 138 143 128 107 169 242 193 142 49 36
316 311 304 299 300 309 318 310 255 180 173 171 157 141 115 91 142 127 137 153 155 174 188 219 80 318 296 78 41 333 323 245 186 171 179 170 135 127 239 94 99 223 189 157 48
302 301 296 289 285 286 305 272 206 175 162 159 146 123 105 83 120 148 153 152 144 151 152 100 68 95 43 18 26 22 11 186 183 161 110 172 148 144 160 196 93 147 208 187 160
291 288 283 274 263 256 250 209 194 183 164 154 155 143 66 296 137 159 171 165 129 109 94 90 85 66 27 344 354 11 38 138 158 124 59 146 143 156 170 188 131 146 173 191 181
280 276 270 266 251 237 235 230 242 235 211 185 148 146 104 84 148 169 158 139 137 133 95 55 46 29 67 56 17 1 339 47 213 155 119 142 158 163 172 186 186 193 147 171 154
274 264 260 257 246 239 237 238 253 243 221 205 188 201 175 119 172 155 154 140 127 111 96 52 356 44 59 21 348 347 343 6 147 59 109 132 175 170 185 189 203 195 189 167 165
271 258 245 246 239 232 228 238 247 251 263 236 231 237 242 180 226 125 135 145 137 130 112 293 38 93 351 314 300 347 15 21 51 323 150 338 164 169 177 182 188 173 176 204 225
267 259 240 236 232 232 232 229 226 238 266 219 216 200 210 209 243 162 112 151 137 123 346 298 259 227 9 348 17 192 321 345 313 340 293 295 189 178 179 179 183 185 190 197 216
263 254 241 230 228 228 238 219 217 193 328 174 167 166 200 175 179 152 136 198 172 196 312 203 156 189 179 77 298 286 281 331 279 281 301 253 262 187 181 182 191 202 201 205 217
257 249 244 225 224 230 220 210 198 183 253 169 177 179 162 153 158 188 184 212 207 253 229 251 229 249 241 267 358 26 326 310 318 279 298 290 291 194 188 207 191 197 202 206 196
252 247 236 229 223 224 217 207 188 213 182 190 192 186 175 162 163 180 193 204 209 225 243 243 235 246 259 262 255 296 2 359 21 7 230 28 201 155 202 213 218 195 191 196 198
248 244 234 225 226 217 209 201 210 218 183 286 204 191 191 180 187 187 215 211 208 210 244 279 323 297 205 201 147 209 103 100 158 297 284 355 76 223 223 197 192 188 178 170 184
248 242 230 221 223 215 207 202 217 191 83 18 211 184 197 195 193 197 216 228 194 209 217 180 73 125 158 178 187 195 303 275 151 281 322 73 106 122 158 166 178 181 181 184 199
247 242 227 222 219 218 214 215 222 210 308 318 172 200 195 199 206 213 216 229 237 232 232 219 197 149 181 196 232 304 327 255 264 117 276 337 217 179 163 167 179 190 198 200 216
245 236 223 215 221 216 218 220 227 224 246 297 275 232 179 157 215 258 228 228 219 222 214 213 223 207 235 238 273 317 256 226 100 95 145 10 344 169 196 212 214 207 210 217 228
232 200 201 201 217 221 225 222 231 229 222 253 268 255 251 269 355 347 211 220 229 217 191 201 206 220 243 231 273 301 246 218 214 207 258 175 226 212 239 206 201 200 211 237 252
219 175 180 195 216 224 225 225 238 236 201 241 264 273 254 268 268 82 167 149 192 195 194 195 189 185 228 239 265 113 64 219 192 185 238 205 235 209 197 197 215 242 250 245 249
211 192 185 202 222 240 241 231 228 209 227 245 237 237 231 230 225 201 165 189 195 196 189 195 183 200 204 227 246 275 305 334 329 261 249 245 256 198 202 274 256 250 249 255 257
209 203 194 204 212 226 232 236 231 235 229 233 229 232 231 234 234 220 223 217 195 196 207 219 215 255 253 244 248 255 268 298 314 306 296 286 284 271 286 240 238 246 248 245 255
213 214 206 198 200 223 235 257 237 195 258 229 229 222 213 212 225 218 220 192 197 216 225 223 197 228 252 241 246 253 262 272 287 284 291 305 303 283 273 263 252 253 254 269 278
219 225 218 210 208 195 197 197 196 226 245 226 233 214 224 220 221 220 216 224 205 211 203 204 183 203 217 234 251 266 259 275 289 282 284 293 292 249 228 242 252 258 264 272 278